カタログに戻る

SL-8 DEB

運用中LEO
NORAD 27745·DEBRIS·🇷🇺 Russia

打ち上げ Feb 12, 1991 から Plesetsk Cosmodrome

Loading…

次のパス (今後24時間)

TLE

最新Source: Space-Track

元期: Sep 13, 2026, 15:11 UTC

1 27745U 91009DA  26256.63278663  .00000037  00000-0  43019-3 0  9996
2 27745  73.9265 341.0360 0144242 277.7840 193.5914 12.30837775359112

AllMySatでSL-8 DEBをリアルタイム追跡

Download on the App Store